This is the latest recevied weather packets stored in our database for station/object SP1BMW-13. If no packets are shown the sender has not sent any weather packets the latest 10 day(s).
| Time | Temp. | Humidity | Pressure | Rain* | Wind** | Luminosity | Snow |
|---|---|---|---|---|---|---|---|
| 1778255880 | 13.89° C | 53% | 1019.3 hPa | 0 mm | 0.45 m/s, 313° | 114 W/m² | - |
| 1778255820 | 13.89° C | 53% | 1019.1 hPa | 0 mm | 0.45 m/s, 334° | 114 W/m² | - |
| 1778255760 | 13.89° C | 52% | 1019.2 hPa | 0 mm | 0.45 m/s, 12° | 115 W/m² | - |
| 1778255701 | 13.89° C | 52% | 1019 hPa | 0 mm | 0.45 m/s, 2° | 116 W/m² | - |
| 1778255641 | 13.89° C | 52% | 1019.1 hPa | 0 mm | 0.45 m/s, 316° | 115 W/m² | - |
| 1778255580 | 13.89° C | 52% | 1019.1 hPa | 0 mm | 0.89 m/s, 64° | 111 W/m² | - |
| 1778255520 | 13.89° C | 53% | 1019.2 hPa | 0 mm | 0.45 m/s, 30° | 107 W/m² | - |
| 1778255461 | 13.89° C | 51% | 1019 hPa | 0 mm | 0.45 m/s, 283° | 104 W/m² | - |
| 1778255400 | 13.89° C | 50% | 1019 hPa | 0 mm | 0 m/s | 102 W/m² | - |
| 1778255341 | 13.89° C | 53% | 1019.1 hPa | 0 mm | 0 m/s | 101 W/m² | - |
| 1778255280 | 13.89° C | 52% | 1019.1 hPa | 0 mm | 0 m/s | 100 W/m² | - |
| 1778255220 | 13.89° C | 52% | 1019.2 hPa | 0 mm | 0 m/s | 99 W/m² | - |
| 1778255160 | 13.89° C | 52% | 1019.3 hPa | 0 mm | 0 m/s | 97 W/m² | - |
| 1778255100 | 13.89° C | 52% | 1019.2 hPa | 0 mm | 0.45 m/s, 49° | 95 W/m² | - |
| 1778255040 | 13.89° C | 52% | 1019.3 hPa | 0 mm | 0.89 m/s, 43° | 94 W/m² | - |
| 1778254980 | 13.89° C | 53% | 1019.2 hPa | 0 mm | 0 m/s | 93 W/m² | - |
| 1778254921 | 13.89° C | 53% | 1019.2 hPa | 0 mm | 0 m/s | 93 W/m² | - |
| 1778254860 | 13.89° C | 53% | 1019.1 hPa | 0 mm | 0.45 m/s, 330° | 93 W/m² | - |
| 1778254800 | 13.89° C | 53% | 1019 hPa | 0 mm | 0 m/s | 94 W/m² | - |
| 1778254740 | 13.89° C | 53% | 1019.3 hPa | 0 mm | 0 m/s | 96 W/m² | - |
| 1778254680 | 13.89° C | 52% | 1019.3 hPa | 0 mm | 0.45 m/s, 317° | 97 W/m² | - |
| 1778254620 | 13.89° C | 54% | 1019.2 hPa | 0 mm | 0 m/s | 98 W/m² | - |
| 1778254560 | 13.89° C | 54% | 1019.1 hPa | 0 mm | 0 m/s | 99 W/m² | - |
| 1778254500 | 13.89° C | 53% | 1019.2 hPa | 0 mm | 0 m/s | 100 W/m² | - |
| 1778254440 | 13.89° C | 52% | 1019.1 hPa | 0 mm | 0 m/s | 101 W/m² | - |
* Rain latest hour (hover to see other rain measurements)
** Current wind speed in m/s (hover to see current wind gust speed)